Location: Bald Rock
(37.3738°N, 119.9354°W)
Time: 22:35:31
(UTC+00:00)

Cosmos 1763 Rocket - Pass Details

Date: 08 September 2024
Orbit: 730 x 776 km, 74.0° (Epoch: 12 October)

Event Time Altitude Azimuth Distance (km) Brightness Sun altitude
Rises 12:17:51 0° 342° (NNW) 3,183 6.7 -16.0°
Reaches altitude 10° 12:20:12 10° 342° (NNW) 2,263 6.0 -15.6°
Maximum altitude 12:25:20 88° 73° (ENE) 757 3.5 -14.6°
Drops below altitude 10° 12:30:31 10° 163° (SSE) 2,280 6.0 -13.6°
Sets 12:32:53 0° 163° (SSE) 3,208 6.7 -13.2°
